FENGYUN 1C DEB

Satellite information

Favourite Embed

Satellite Type and Status

DEBRISIN ORBIT

Key statistics

Satellite FENGYUN 1C DEB at a glance.

Uptime

9715

Days in orbit

Revolutions

≈ 13.9

Per day

Orbit

SSO

Sun Synchronous Orbit

Inclination

99.5

Latest

Satellite identification and parameters

Extended collection of information and parameters for FENGYUN 1C DEB.

Object identification

Identified? True

Debris? True

Object name: FENGYUN 1C DEB

International designator: 1999-025TD

Object number (NORAD): 30148

Object ID (CCSDS): 30148

Country: PEOPLES REPUBLIC OF CHINA (PRC)

Current information (Y/N): Y

RCS size: SMALL

Orbital parameters

Period: 103.71 minutes

Inclination: 99.5443 deg

SMA: 7312.06 km

Apoapsis: 1032.617 km

Periapsis: 835.232 km

RAAN: 137.0299 deg

Eccentricy: 0.01349726

Argument of periapsis: 194.1212 deg

Mean anomaly: 182.5906 deg

Mean motion: 13.88491335 rev/day

Mean motion (dot): 0.00001657 rev/day2

B* drag term: 0.0013192505 1/REarth

Two-line elements (TLE)

Creation date: Dec. 14, 2025, 3:07 a.m.

Reference frame: TEME

Reference center: EARTH

Epoch: Dec. 13, 2025, 4:51 p.m. UTC

TLE line 0: 0 FENGYUN 1C DEB

TLE line 1: 1 30148U 99025TD 25347.70222424 .00001657 00000-0 13193-2 0 9993

TLE line 2: 2 30148 99.5443 137.0299 0134973 194.1212 182.5906 13.88491335955308

Live tracking on map

Real-time ground track for satellite FENGYUN 1C DEB.

In-orbit conjunctions

A list of the most updated potential collisions computed for object FENGYUN 1C DEB.

Target Orbit TCA Probability of collision Miss distance Type
CZ-6A DEB LEO 2025-01-26 22:18:31 0.0001220761 395.0 (m) DEBRIS
COSMOS 2251 DEB LEO 2024-11-08 19:54:32 0.00119546 255.0 (m) DEBRIS
INFORMATOR 1 LEO 2024-11-03 19:42:27 0.0001857417 376.0 (m) PAYLOAD

Associated space launch

Chinese polar orbiting meteorological satellite

FENGYUN 1C DEB was lifted into orbit during the mission ‘Long March 4B | Feng Yun 1C’, on board a Long March 4B space rocket.

The launch took place on May 10, 1999, 1:33 a.m. from Launch Complex 7.

For more information about the launch, click the button.

Launch to space Long March 4B | Feng Yun 1C
Long March 4B | Feng Yun 1C

Agency: N/A

Status: Launch Successful

Launch date: May 10, 1999, 1:33 a.m. UTC

Rocket: Long March 4B

Launch pad: Launch Complex 7

Location: Taiyuan Satellite Launch Center, People's Republic of China

...

Latest news about this satellite

There are no fresh news available about this satellite. Check back as we update our databases every day.


Newsletter sign-up

Weekly statistics, charts and insights to help you stay on top of the space industry.